RH
55 72 75 78 51 44 44 58 62 65 64 60 57 55 53 48 46 48 49 53 58 55 56 59 79 89 94
68 80 88 51 45 42 53 58 65 61 62 58 56 52 52 52 52 53 54 54 53 54 57 62 61 57 56
78 84 54 48 45 48 49 63 64 65 64 61 59 52 50 49 50 51 52 52 52 53 53 54 54 54 53
80 58 50 48 49 50 67 67 69 71 67 60 53 49 46 48 48 47 46 44 41 42 42 43 49 52 54
65 61 53 53 55 67 76 71 71 71 65 63 55 50 44 45 46 45 42 38 40 39 35 35 35 38 43
71 55 60 55 62 78 69 75 80 72 64 54 48 45 44 47 44 38 38 40 38 29 26 28 32 37 38
57 69 62 77 90 80 85 79 73 67 56 52 47 45 48 47 40 38 39 29 28 30 34 37 36 34 30
70 81 90 93 84 80 82 76 69 59 52 46 47 49 51 45 42 41 30 28 30 38 41 36 29 22 18
77 94 92 96 89 88 77 69 60 54 51 49 52 52 45 43 41 33 28 30 36 43 38 27 16 11 8
88 92 98 100 89 78 73 63 56 54 57 59 57 53 44 40 30 26 27 34 41 39 28 19 11 8 9
92 98 100 90 82 75 67 62 62 62 62 60 52 43 35 30 23 23 29 35 30 21 20 16 11 10 9
94 98 92 84 76 73 68 67 61 61 64 62 45 34 31 28 25 24 30 22 14 15 17 14 11 10 10
93 94 84 77 77 74 74 71 68 67 65 48 34 31 29 26 29 30 32 16 13 14 15 12 11 11 12
91 83 80 81 78 78 78 75 71 69 54 38 31 30 30 27 30 31 22 20 16 14 14 12 12 14 17
82 80 76 76 82 79 80 79 77 61 37 29 30 30 32 31 35 25 21 20 17 14 14 12 13 18 16
81 77 79 87 85 84 86 86 74 48 31 28 26 26 29 35 32 25 20 22 16 12 14 12 16 18 13
82 84 87 89 95 91 87 78 58 37 30 26 26 27 32 38 30 15 19 18 15 11 13 16 16 16 13
Wind_Speed
88 87 91 94 84 74 62 59 61 65 66 64 63 63 63 63 61 59 56 54 53 53 53 57 67 75 81
85 89 96 85 74 65 58 59 63 68 66 66 64 63 63 64 63 63 62 61 60 60 60 61 62 62 66
90 94 85 74 66 59 58 61 66 69 68 68 67 66 67 66 66 65 65 66 67 68 68 68 68 67 68
94 83 75 68 61 59 60 65 69 71 70 69 69 69 70 69 68 67 68 70 70 70 71 73 73 72 72
88 75 70 64 61 60 64 69 71 72 72 72 72 72 72 70 70 72 72 72 68 66 65 65 68 72 74
75 71 66 62 61 64 69 73 73 74 74 74 74 75 74 72 73 72 69 66 66 66 65 64 64 66 68
70 69 64 62 64 68 71 74 76 76 76 76 79 76 74 76 74 69 68 68 67 67 66 64 65 66 66
67 65 61 64 67 70 73 76 76 79 80 79 77 75 74 76 71 69 69 70 69 68 66 66 65 64 64
66 63 64 66 68 71 75 77 79 81 82 79 74 77 76 72 68 68 69 69 68 66 67 68 65 61 58
64 64 64 65 69 73 76 80 81 81 79 77 76 79 77 71 69 68 68 66 64 64 67 68 64 58 52
64 63 64 67 70 75 78 81 80 79 77 79 78 74 74 73 72 69 65 62 61 60 59 61 58 52 44
63 62 65 68 72 77 80 82 81 78 78 79 77 73 73 73 75 70 66 64 58 51 49 51 48 43 37
61 61 65 69 73 78 80 83 80 78 78 75 73 73 71 71 69 68 65 65 53 47 45 46 41 39 34
57 62 67 70 74 79 81 82 80 78 78 74 72 71 71 70 67 64 61 59 56 46 43 41 37 35 32
60 64 68 72 75 78 80 80 79 80 76 71 68 69 70 69 67 62 58 57 50 45 40 37 31 33 31
61 66 69 74 78 80 80 79 79 77 75 73 67 66 67 68 61 56 54 53 50 40 37 34 27 32 31
64 68 72 76 80 82 79 78 77 75 75 70 67 65 66 67 69 51 48 44 44 40 31 32 28 32 29
Wind_Direction
305 305 307 308 309 306 304 302 307 309 308 309 309 309 309 308 307 304 300 295 290 285 276 268 263 261 257
305 306 308 309 308 305 301 303 306 307 307 308 307 308 309 306 303 300 299 296 292 286 281 276 274 273 266
305 306 308 307 306 303 302 304 306 307 307 309 308 309 307 304 301 299 296 294 291 287 282 279 276 273 270
305 307 306 306 304 303 303 305 306 307 307 308 309 309 308 305 302 300 297 294 290 286 284 280 276 274 272
306 306 306 304 302 301 303 304 306 306 309 308 307 306 307 305 303 302 300 297 294 291 287 286 280 274 271
304 306 305 303 302 302 302 306 307 306 305 306 307 307 307 306 305 303 301 298 296 294 292 288 282 277 273
304 306 304 304 301 302 303 305 306 307 307 308 308 309 308 308 307 305 304 301 300 298 294 289 284 280 277
303 305 302 300 302 303 304 305 307 308 309 310 310 309 309 308 307 306 304 303 302 300 296 290 286 283 280
303 303 302 303 303 304 306 307 309 310 311 311 311 310 310 308 307 307 305 304 303 301 297 293 290 287 283
302 301 303 303 304 306 308 308 311 312 312 312 313 311 310 309 309 308 306 305 303 301 298 295 292 290 285
300 302 302 303 305 307 309 311 312 313 313 313 314 312 311 310 310 309 309 305 303 301 296 291 290 289 282
301 302 303 306 307 309 311 312 313 314 314 315 315 313 311 310 310 313 311 308 307 302 296 290 291 287 278
302 304 305 307 309 310 312 313 314 314 315 316 315 313 311 310 311 313 312 310 307 304 296 291 289 283 278
303 304 306 308 309 311 313 313 313 314 315 317 316 314 312 311 313 313 313 309 308 304 294 289 284 276 273
303 305 307 309 310 313 314 313 314 315 315 316 315 313 311 312 314 315 313 309 306 302 294 288 276 271 269
305 307 309 310 313 314 314 314 315 315 315 316 316 314 313 313 312 315 312 310 305 300 292 284 270 269 270
306 308 309 312 314 314 313 314 316 314 314 315 316 315 315 315 313 315 313 309 299 296 290 277 273 272 270